Home   Weather   State College   Past weeks
Flag for USA

Past Weather in State College, Pennsylvania, USA — Yesterday and Last 2 Weeks

Now
73 °F

Sunny.


Feels Like: 76 °F
Forecast: 85 / 61 °F
Wind: 9 mph from West

Location: University Park Airport

Current Time: Jun 26, 2019 at 10:18:57 am

Latest Report: Jun 26, 2019 at 8:53 am


Visibility: 10 mi

Pressure: 30.10 "Hg

Humidity: 69%

Dew Point: 63 °F

Location of State CollegeLocation

Past Weather in State College — Graph

°F

State College Temperature Yesterday

Maximum temperature yesterday: 81 °F (at 1:53 pm)
Minimum temperature yesterday: 67 °F (at 11:57 pm)
Average temperature yesterday: 73 °F

High & Low Weather Summary for the Past Weeks

 TemperatureHumidityPressure
High81 °F (Jun 24, 2:53 pm)100% (Jun 13, 11:53 am)30.20 "Hg (Jun 13, 11:53 am)
Low46 °F (Jun 12, 5:53 am)36% (Jun 11, 4:53 pm)29.54 "Hg (Jun 20, 7:53 pm)
Average65 °F81%29.91 "Hg
* Reported Jun 11 8:53 am — Jun 26 8:53 am, State College. Weather by CustomWeather, © 2019

Note: Actual official high and low records may vary slightly from our data, if they occured in-between our weather recording intervals... More about our weather records

Advertising

State College Weather History for the Previous 24 Hours

Scroll right to see more
 ConditionsComfort  
Time TempWeatherWind HumidityBarometerVisibility
8:53 am
Wed, Jun 26
73 °FSunny.9 mph69%30.10 "Hg10 mi
7:53 am66 °FSunny.No wind88%30.10 "Hg10 mi
6:53 am61 °FSunny.No wind94%30.09 "Hg10 mi
5:53 am61 °FPassing clouds.No wind88%30.08 "Hg10 mi
5:39 am60 °FPassing clouds.No wind90%30.07 "Hg10 mi
5:16 am60 °FPassing clouds.No wind90%30.07 "Hg10 mi
4:36 am59 °FPassing clouds.No wind90%30.06 "Hg10 mi
3:59 am60 °FClear.No wind92%30.06 "Hg10 mi
3:35 am59 °FPassing clouds.No wind91%30.05 "Hg10 mi
3:15 am61 °FClear.No wind86%30.04 "Hg10 mi
2:57 am61 °FPassing clouds.No wind89%30.04 "Hg10 mi
2:39 am61 °FClear.No wind89%30.03 "Hg10 mi
1:56 am66 °FPassing clouds.No wind73%30.03 "Hg10 mi
1:36 am64 °FPassing clouds.No wind78%30.03 "Hg10 mi
1:18 am64 °FPassing clouds.No wind78%30.04 "Hg10 mi
12:55 am62 °FPassing clouds.No wind85%30.04 "Hg10 mi
12:36 am65 °FPassing clouds.No wind78%30.03 "Hg10 mi
11:57 pm
Tue, Jun 25
67 °FPassing clouds.No wind70%30.03 "Hg10 mi
11:16 pm70 °FPassing clouds.No wind65%30.02 "Hg10 mi
10:56 pm69 °FPassing clouds.5 mph68%30.01 "Hg10 mi
10:36 pm70 °FPassing clouds.No wind64%30.00 "Hg10 mi
10:18 pm71 °FPassing clouds.No wind62%30.00 "Hg10 mi
8:53 pm73 °FPassing clouds.No wind57%29.97 "Hg10 mi
7:53 pm77 °FScattered clouds.7 mph51%29.96 "Hg10 mi
6:53 pm79 °FScattered clouds.8 mph48%29.94 "Hg10 mi
5:53 pm81 °FScattered clouds.13 mph45%29.93 "Hg10 mi
4:53 pm81 °FScattered clouds.13 mph48%29.93 "Hg10 mi
3:53 pm81 °FScattered clouds.14 mph45%29.93 "Hg10 mi
2:53 pm81 °FScattered clouds.10 mph48%29.93 "Hg10 mi
1:53 pm81 °FScattered clouds.9 mph48%29.92 "Hg10 mi
12:53 pm79 °FScattered clouds.12 mph54%29.91 "Hg10 mi
11:53 am77 °FBroken clouds.12 mph65%29.91 "Hg10 mi
10:53 am75 °FBroken clouds.9 mph74%29.90 "Hg10 mi
Weather by CustomWeather, © 2019

See weather overview